| time (UTC) | temp C | wind direction | speed KPH | gust KPH | rain 1hr cm | rain 24hr cm | rain mn cm | humidity % | barometer mb |
| 20260904003031 | 29 | 51 | 1.6 | 16.1 | 0.00 | 0.00 | 0.00 | 70 | 990.8 |
| 20260904001531 | 30 | 89 | 0.0 | 11.3 | 0.00 | 0.00 | 0.00 | 66 | 990.7 |
| 20260904000039 | 30 | 43 | 0.0 | 16.1 | 0.00 | 0.00 | 0.00 | 68 | 990.5 |
| 20260903234538 | 30 | 31 | 1.6 | 17.7 | 0.00 | 0.00 | 0.00 | 67 | 990.5 |
| 20260903233029 | 30 | 75 | 0.0 | 9.7 | 0.00 | 0.00 | 0.00 | 68 | 990.4 |
| 20260903231529 | 30 | 56 | 0.0 | 17.7 | 0.00 | 0.00 | 0.00 | 66 | 990.4 |
| 20260903230040 | 30 | 21 | 1.6 | 12.9 | 0.00 | 0.00 | 0.00 | 67 | 990.3 |
| 20260903224528 | 31 | 32 | 4.8 | 17.7 | 0.00 | 0.00 | 0.00 | 67 | 990.2 |
| 20260903223028 | 31 | 35 | 1.6 | 16.1 | 0.00 | 0.00 | 0.00 | 66 | 990.1 |
| 20260903221527 | 31 | 27 | 1.6 | 14.5 | 0.00 | 0.00 | 0.00 | 63 | 990.1 |
| 20260903220026 | 31 | 359 | 0.0 | 14.5 | 0.00 | 0.00 | 0.00 | 63 | 990.1 |
| 20260903214529 | 31 | 30 | 0.0 | 19.3 | 0.00 | 0.00 | 0.00 | 63 | 990.4 |
| 20260903213030 | 31 | 125 | 0.0 | 11.3 | 0.00 | 0.00 | 0.00 | 63 | 990.5 |
| 20260903211521 | 31 | 112 | 0.0 | 3.2 | 0.00 | 0.00 | 0.00 | 64 | 990.6 |
| 20260903210019 | 31 | 127 | 1.6 | 14.5 | 0.00 | 0.00 | 0.00 | 65 | 990.9 |
| 20260903204516 | 30 | 122 | 0.0 | 1.6 | 0.00 | 0.00 | 0.00 | 66 | 991.0 |
| 20260903203026 | 30 | 359 | 0.0 | 1.6 | 0.00 | 0.00 | 0.00 | 67 | 991.2 |
| 20260903201511 | 30 | 71 | 0.0 | 16.1 | 0.00 | 0.00 | 0.00 | 68 | 991.3 |
| 20260903200010 | 30 | 66 | 0.0 | 4.8 | 0.00 | 0.00 | 0.00 | 69 | 991.4 |
| 20260903194508 | 30 | 40 | 0.0 | 16.1 | 0.00 | 0.00 | 0.00 | 69 | 991.3 |
| 20260903193018 | 30 | 64 | 0.0 | 19.3 | 0.00 | 0.00 | 0.00 | 70 | 991.7 |
| 20260903191507 | 29 | 114 | 3.2 | 16.1 | 0.00 | 0.00 | 0.00 | 70 | 991.8 |
| 20260903190007 | 29 | 53 | 6.4 | 29.0 | 0.00 | 0.00 | 0.00 | 70 | 992.2 |
| 20260903184506 | 29 | 64 | 0.0 | 19.3 | 0.00 | 0.00 | 0.00 | 70 | 992.3 |
| 20260903183006 | 29 | 81 | 0.0 | 20.9 | 0.00 | 0.00 | 0.00 | 72 | 992.3 |
| 20260903181511 | 29 | 359 | 3.2 | 22.5 | 0.00 | 0.00 | 0.00 | 71 | 992.5 |
| 20260903180106 | 28 | 64 | 0.0 | 17.7 | 0.00 | 0.00 | 0.00 | 75 | 992.8 |
| 20260903174559 | 27 | 108 | 3.2 | 20.9 | 0.00 | 0.00 | 0.00 | 76 | 993.1 |
| 20260903173057 | 27 | 30 | 8.0 | 24.1 | 0.00 | 0.00 | 0.00 | 76 | 993.0 |
| 20260903171606 | 27 | 81 | 1.6 | 16.1 | 0.00 | 0.00 | 0.00 | 78 | 993.2 |
| 20260903170056 | 27 | 35 | 4.8 | 24.1 | 0.00 | 0.00 | 0.00 | 80 | 993.1 |
| 20260903164619 | 27 | 80 | 6.4 | 22.5 | 0.00 | 0.00 | 0.00 | 81 | 993.1 |
| 20260903163100 | 27 | 66 | 8.0 | 22.5 | 0.00 | 0.00 | 0.00 | 80 | 993.0 |
| 20260903161552 | 27 | 95 | 6.4 | 16.1 | 0.00 | 0.00 | 0.00 | 79 | 992.9 |
| 20260903160054 | 27 | 41 | 6.4 | 20.9 | 0.00 | 0.00 | 0.00 | 80 | 992.8 |
| 20260903154551 | 27 | 97 | 0.0 | 17.7 | 0.00 | 0.00 | 0.00 | 82 | 992.8 |
| 20260903153048 | 27 | 106 | 12.9 | 22.5 | 0.00 | 0.00 | 0.00 | 83 | 992.8 |
| 20260903151547 | 26 | 110 | 8.0 | 17.7 | 0.00 | 0.00 | 0.00 | 85 | 992.8 |
| 20260903150045 | 26 | 359 | 9.7 | 19.3 | 0.00 | 0.00 | 0.00 | 87 | 992.7 |
| 20260903144545 | 26 | 108 | 0.0 | 6.4 | 0.00 | 0.00 | 0.00 | 87 | 992.8 |
| 20260903143046 | 26 | 359 | 0.0 | 16.1 | 0.00 | 0.00 | 0.00 | 88 | 992.8 |
| 20260903141539 | 26 | 52 | 3.2 | 14.5 | 0.00 | 0.00 | 0.00 | 88 | 992.7 |
| 20260903140043 | 25 | 359 | 3.2 | 12.9 | 0.00 | 0.00 | 0.00 | 89 | 992.9 |
| 20260903134537 | 25 | 71 | 0.0 | 14.5 | 0.00 | 0.00 | 0.00 | 90 | 992.9 |
| 20260903133035 | 25 | 66 | 1.6 | 12.9 | 0.00 | 0.00 | 0.00 | 90 | 992.9 |
| 20260903131535 | 25 | 59 | 0.0 | 9.7 | 0.00 | 0.00 | 0.00 | 90 | 992.7 |
| 20260903130033 | 25 | 77 | 0.0 | 12.9 | 0.00 | 0.00 | 0.00 | 90 | 992.2 |
| 20260903124534 | 25 | 40 | 0.0 | 6.4 | 0.00 | 0.00 | 0.00 | 90 | 992.4 |
| 20260903123031 | 25 | 38 | 0.0 | 16.1 | 0.00 | 0.00 | 0.00 | 90 | 992.3 |
| 20260903121535 | 25 | 34 | 1.6 | 14.5 | 0.00 | 0.00 | 0.00 | 90 | 992.3 |
| 20260903120039 | 25 | 359 | 6.4 | 14.5 | 0.00 | 0.00 | 0.00 | 90 | 992.2 |
| 20260903114526 | 25 | 67 | 0.0 | 9.7 | 0.00 | 0.00 | 0.00 | 91 | 992.0 |
| 20260903113037 | 25 | 95 | 0.0 | 3.2 | 0.00 | 0.00 | 0.00 | 90 | 992.0 |
| 20260903111523 | 24 | 359 | 0.0 | 4.8 | 0.00 | 0.00 | 0.00 | 90 | 991.9 |
| 20260903110022 | 24 | 39 | 0.0 | 3.2 | 0.00 | 0.00 | 0.00 | 91 | 992.0 |
| 20260903104530 | 24 | 35 | 0.0 | 3.2 | 0.00 | 0.00 | 0.00 | 91 | 991.8 |
| 20260903103029 | 24 | 31 | 0.0 | 4.8 | 0.00 | 0.00 | 0.00 | 91 | 991.7 |
| 20260903101526 | 24 | 43 | 0.0 | 4.8 | 0.00 | 0.00 | 0.00 | 91 | 991.6 |
| 20260903100024 | 24 | 87 | 0.0 | 9.7 | 0.00 | 0.00 | 0.00 | 90 | 991.7 |
| 20260903094535 | 24 | 31 | 0.0 | 14.5 | 0.00 | 0.00 | 0.00 | 90 | 991.9 |
| 20260903093017 | 24 | 359 | 0.0 | 4.8 | 0.00 | 0.00 | 0.00 | 89 | 991.8 |
| 20260903091515 | 25 | 359 | 0.0 | 9.7 | 0.00 | 0.00 | 0.00 | 87 | 991.8 |
| 20260903090014 | 25 | 359 | 0.0 | 3.2 | 0.00 | 0.00 | 0.00 | 85 | 991.8 |
| 20260903084515 | 25 | 359 | 0.0 | 6.4 | 0.00 | 0.00 | 0.00 | 84 | 991.5 |
| 20260903083014 | 25 | 359 | 0.0 | 4.8 | 0.00 | 0.00 | 0.00 | 83 | 991.2 |
| 20260903081513 | 25 | 359 | 0.0 | 1.6 | 0.00 | 0.00 | 0.00 | 85 | 991.5 |
| 20260903080012 | 25 | 118 | 0.0 | 1.6 | 0.00 | 0.00 | 0.00 | 85 | 991.5 |
| 20260903074512 | 25 | 122 | 0.0 | 1.6 | 0.00 | 0.00 | 0.00 | 87 | 991.4 |
| 20260903073017 | 25 | 147 | 0.0 | 1.6 | 0.00 | 0.00 | 0.00 | 86 | 991.3 |
| 20260903071510 | 25 | 359 | 0.0 | 1.6 | 0.00 | 0.00 | 0.00 | 84 | 991.4 |
| 20260903070012 | 25 | 48 | 0.0 | 0.0 | 0.00 | 0.00 | 0.00 | 85 | 991.4 |
| 20260903064509 | 25 | 359 | 0.0 | 0.0 | 0.00 | 0.00 | 0.00 | 84 | 991.4 |
| 20260903063010 | 25 | 66 | 0.0 | 0.0 | 0.00 | 0.00 | 0.00 | 84 | 991.5 |
| 20260903061508 | 25 | 359 | 0.0 | 1.6 | 0.00 | 0.00 | 0.00 | 84 | 991.4 |
| 20260903060005 | 25 | 359 | 0.0 | 1.6 | 0.00 | 0.00 | 0.00 | 83 | 991.5 |
| 20260903054503 | 25 | 359 | 0.0 | 8.0 | 0.00 | 0.00 | 0.00 | 82 | 991.8 |
| 20260903053101 | 25 | 359 | 0.0 | 9.7 | 0.00 | 0.00 | 0.00 | 81 | 991.9 |
| 20260903051612 | 26 | 359 | 0.0 | 1.6 | 0.00 | 0.00 | 0.00 | 79 | 991.9 |
| 20260903050057 | 26 | 359 | 0.0 | 12.9 | 0.00 | 0.00 | 0.00 | 78 | 992.0 |
| 20260903044556 | 26 | 359 | 0.0 | 1.6 | 0.00 | 0.00 | 0.00 | 76 | 992.2 |
| 20260903043146 | 26 | 359 | 0.0 | 12.9 | 0.00 | 0.00 | 0.00 | 75 | 992.0 |
| 20260903041553 | 27 | 359 | 0.0 | 16.1 | 0.00 | 0.00 | 0.00 | 74 | 992.1 |
| 20260903040053 | 27 | 359 | 0.0 | 12.9 | 0.00 | 0.00 | 0.00 | 72 | 992.1 |
| 20260903034553 | 27 | 359 | 1.6 | 16.1 | 0.00 | 0.00 | 0.00 | 71 | 992.2 |
| 20260903033053 | 27 | 359 | 0.0 | 12.9 | 0.00 | 0.00 | 0.00 | 70 | 992.1 |
| 20260903031556 | 28 | 359 | 0.0 | 3.2 | 0.00 | 0.00 | 0.00 | 69 | 992.2 |
| 20260903030052 | 28 | 359 | 0.0 | 8.0 | 0.00 | 0.00 | 0.00 | 68 | 992.1 |
| 20260903024551 | 28 | 359 | 0.0 | 3.2 | 0.00 | 0.00 | 0.00 | 66 | 992.0 |
| 20260903023050 | 29 | 359 | 0.0 | 12.9 | 0.00 | 0.00 | 0.00 | 65 | 991.9 |
| 20260903021549 | 30 | 359 | 0.0 | 3.2 | 0.00 | 0.00 | 0.00 | 64 | 991.8 |
| 20260903020049 | 30 | 61 | 0.0 | 16.1 | 0.00 | 0.00 | 0.00 | 62 | 991.6 |
| 20260903014552 | 31 | 24 | 0.0 | 14.5 | 0.00 | 0.00 | 0.00 | 61 | 991.4 |
| 20260903013057 | 31 | 54 | 0.0 | 4.8 | 0.00 | 0.00 | 0.00 | 60 | 991.1 |
| 20260903011547 | 31 | 359 | 0.0 | 4.8 | 0.00 | 0.00 | 0.00 | 57 | 990.8 |
| 20260903010049 | 32 | 359 | 0.0 | 16.1 | 0.00 | 0.00 | 0.00 | 55 | 990.7 |
| 20260903004547 | 32 | 27 | 0.0 | 8.0 | 0.00 | 0.00 | 0.00 | 53 | 990.6 |